Wind_Speed
61 61 60 60 60 60 61 62 61 61 62 62 61 60 60 60 60 58 55 52 52 54 56 57 59 61 64 66 67 69 70 70 70 70 69 68 68 67 66 65 65 65 65 65 65 65 66 67 68 68 67 67 68 68 67 66 65 66 69 72 75 76 76 76 75 73 69 66 63 61 61 63 66 69 70 71 71 72 73 71 69 69 69 71 72 74
62 61 60 59 59 60 61 61 60 60 61 62 62 61 60 60 60 59 55 51 50 51 53 55 57 60 62 64 67 69 70 70 70 70 69 69 68 68 67 66 65 65 65 65 65 66 67 68 68 68 67 67 68 69 68 67 65 65 67 70 73 75 76 77 77 76 73 70 66 63 62 62 64 67 70 71 71 72 72 71 69 68 68 69 70 72
62 62 61 60 60 60 60 60 60 60 61 62 62 61 60 61 61 60 57 52 50 50 52 53 55 58 60 63 66 69 70 70 70 70 70 69 69 68 67 66 65 65 65 65 66 66 67 68 68 68 67 67 68 69 69 67 65 63 64 67 70 73 75 76 77 77 76 73 70 67 64 62 62 64 67 68 69 69 69 68 67 66 67 67 67 68
63 63 62 61 61 60 60 60 60 60 60 61 61 61 61 61 62 61 58 54 51 50 50 52 53 55 58 61 65 68 70 70 70 70 69 69 69 68 67 66 65 64 65 65 66 67 68 69 68 67 67 67 68 69 70 68 65 63 63 65 67 70 73 75 76 76 76 75 73 71 67 64 62 62 64 65 66 66 66 66 66 66 67 67 66 65
65 64 63 62 62 61 61 61 60 60 60 61 61 61 61 62 61 61 59 55 52 50 50 50 52 54 56 60 63 67 69 69 69 69 68 68 68 67 67 65 64 64 64 65 67 68 69 69 68 67 67 67 68 69 69 68 66 64 63 64 65 68 71 73 74 75 75 74 74 73 71 68 65 63 63 64 65 66 67 67 67 68 69 69 68 66
65 64 63 62 62 62 62 61 61 61 61 61 61 61 61 61 61 60 59 56 53 50 49 49 50 52 54 57 61 65 67 68 68 68 68 67 67 66 65 64 64 63 64 65 66 68 69 69 68 67 66 67 68 69 69 68 66 64 64 64 64 65 68 70 73 74 75 74 74 73 72 70 68 65 63 64 66 67 69 69 70 70 71 71 70 69
63 63 62 62 62 62 62 61 61 61 60 60 60 60 60 60 60 59 59 57 53 50 48 48 48 49 51 54 58 62 65 67 68 67 67 67 66 66 65 64 63 63 63 64 66 67 68 68 67 66 66 67 67 68 67 67 66 65 64 64 64 64 65 67 70 72 74 75 75 74 73 72 70 67 64 63 65 67 69 70 71 72 72 72 71 70
60 60 60 60 59 59 59 60 61 60 59 59 59 59 58 58 58 58 58 57 54 50 47 46 47 48 49 52 55 59 63 65 65 66 66 66 66 65 64 63 63 63 64 64 65 66 66 66 66 66 66 66 66 66 66 66 65 65 64 64 63 63 64 65 67 70 72 74 75 75 74 73 71 68 65 64 64 66 69 70 72 73 73 72 71 70
58 58 56 54 53 53 56 59 60 58 56 56 56 56 56 56 56 56 56 55 53 50 47 46 46 47 48 50 52 56 59 62 63 63 64 64 64 64 63 63 63 63 64 65 65 65 66 66 66 66 66 66 65 65 65 65 65 64 63 63 62 62 62 63 64 66 68 71 73 74 74 73 71 69 67 65 65 67 69 71 73 73 72 71 70 69
56 55 52 49 48 50 54 59 59 57 54 53 53 53 53 53 54 54 54 54 52 49 46 45 45 46 46 47 49 52 56 58 60 61 61 61 62 62 62 62 62 63 64 65 65 66 66 66 66 66 66 65 64 64 64 64 64 63 62 62 61 61 61 61 62 63 65 67 70 72 73 73 72 70 68 66 66 67 69 71 72 73 72 70 69 68
53 52 50 48 49 51 54 57 56 53 51 50 50 50 51 52 52 52 52 52 50 47 45 44 44 45 45 46 47 49 52 54 56 57 58 59 59 59 60 61 62 63 64 65 66 66 66 66 66 66 66 65 64 63 63 63 62 62 61 60 60 59 59 59 59 60 62 63 66 68 70 71 71 71 69 68 67 67 67 68 70 71 70 69 68 66
49 49 49 49 50 51 53 53 52 50 48 48 48 49 50 50 50 50 50 50 49 46 44 43 43 44 44 45 46 47 49 50 51 52 53 55 56 56 57 59 60 62 63 64 65 66 66 66 66 66 65 64 63 62 62 61 61 60 59 59 58 58 58 58 58 58 59 60 62 64 66 68 70 70 70 70 69 67 66 65 66 68 68 68 67 66
46 47 47 47 48 48 49 48 47 46 46 46 47 48 49 48 48 48 48 48 47 45 44 43 43 44 44 44 45 46 46 47 48 48 49 50 52 54 55 57 58 60 62 63 65 65 65 65 65 64 64 63 62 61 60 60 59 59 58 57 57 56 56 56 56 56 57 58 59 61 63 66 67 69 70 70 69 68 65 64 63 64 66 67 67 67
45 45 45 46 46 45 45 44 43 43 44 44 45 46 46 46 46 46 46 47 46 44 43 43 43 44 44 44 44 44 45 45 45 45 45 47 49 51 53 54 56 58 60 62 63 64 64 64 63 63 62 61 61 60 59 59 58 58 57 56 56 55 55 55 55 55 55 56 57 59 61 63 65 67 68 69 69 67 65 63 62 62 64 65 67 67
45 45 45 45 45 45 44 43 43 43 43 43 43 43 44 44 43 44 44 44 44 42 42 42 43 43 43 43 43 43 42 42 42 42 43 45 48 49 50 52 54 57 58 60 61 62 62 62 61 61 60 60 59 58 58 57 57 56 56 55 55 54 54 53 53 53 54 54 55 56 58 60 62 65 67 68 68 67 66 64 62 62 62 64 65 66
45 45 45 45 45 45 45 45 44 44 43 42 41 41 41 42 41 41 40 40 40 39 39 40 42 42 42 42 41 40 40 40 40 41 42 45 46 47 47 49 52 55 56 58 59 60 60 60 59 59 59 58 57 57 57 56 56 55 54 54 53 53 52 52 51 51 52 53 53 55 56 58 60 62 65 66 67 67 65 64 62 61 60 61 63 64
46 46 46 46 46 46 45 44 44 45 45 44 42 41 40 40 38 37 36 36 36 36 37 38 39 40 40 40 39 38 37 37 38 40 42 44 44 44 44 47 50 53 55 56 58 58 58 58 58 58 57 56 56 56 55 55 54 53 53 52 51 51 50 50 49 49 50 51 52 53 54 56 58 60 62 64 66 66 65 63 62 60 58 58 59 60
46 46 47 47 46 46 45 44 44 44 46 46 45 42 40 38 36 35 35 35 35 35 35 36 36 36 37 37 37 36 35 36 37 39 40 42 43 43 43 45 48 51 53 54 56 56 56 56 56 56 55 55 54 54 54 53 52 52 51 50 50 49 48 47 47 47 48 49 50 51 52 54 56 58 60 62 64 65 64 63 60 58 55 54 54 55
47 47 48 47 46 45 44 44 44 44 46 47 47 45 41 38 36 36 36 36 35 35 34 34 33 33 34 35 35 35 34 35 36 37 38 40 41 42 42 44 47 49 51 52 54 55 54 54 54 54 53 53 53 53 52 51 51 50 49 49 48 47 46 46 45 45 46 47 48 49 51 52 54 56 58 60 62 63 63 62 60 57 53 50 49 50
47 48 49 48 46 45 44 44 44 45 46 48 47 46 43 39 38 38 38 37 37 35 33 32 31 31 31 32 33 33 33 34 35 36 37 39 40 40 40 42 45 47 49 51 52 53 53 53 52 52 52 52 51 51 50 50 49 48 48 47 46 45 44 44 44 44 44 45 46 47 49 50 52 54 56 58 60 62 62 62 60 58 54 51 48 48
48 49 48 47 46 45 45 44 44 44 46 46 45 44 43 41 40 40 39 38 37 36 34 33 31 30 29 29 29 29 30 32 34 35 36 38 38 38 39 41 43 46 48 50 51 51 51 51 51 51 50 50 50 49 49 48 47 47 46 46 45 44 43 43 42 42 43 43 44 45 47 48 50 52 54 56 58 60 61 62 61 60 57 53 51 49
48 49 47 46 45 45 45 44 43 43 44 44 43 43 42 42 42 42 39 38 37 37 36 35 33 32 30 29 27 27 28 29 32 33 34 36 37 37 38 40 42 45 47 48 49 49 49 49 49 49 49 49 48 48 47 47 46 46 45 44 44 43 42 42 42 42 42 42 43 44 45 47 48 50 52 54 56 58 59 60 61 61 59 56 53 50
48 48 47 46 45 45 44 43 42 42 42 43 42 42 42 42 42 41 39 39 39 39 39 38 38 36 35 32 30 28 27 28 30 32 32 34 36 37 37 39 41 43 45 46 47 47 47 48 48 48 48 47 47 46 46 46 45 45 44 43 43 42 42 42 41 41 42 42 43 43 44 45 47 49 51 52 54 56 57 58 59 59 59 57 54 52
47 48 47 47 46 45 44 44 43 43 43 43 42 42 42 43 43 43 44 45 46 45 44 43 41 40 37 35 33 31 30 30 31 31 32 34 36 37 36 37 39 41 44 45 45 45 46 46 47 46 46 46 46 45 45 45 44 44 43 43 42 42 42 42 41 42 42 42 42 43 44 45 46 47 49 51 52 53 54 55 55 56 56 55 54 52
45 46 46 46 46 45 45 44 44 44 44 44 44 44 45 47 49 50 51 52 51 50 48 46 44 43 40 39 37 35 34 33 33 33 34 35 36 37 35 35 37 40 42 43 43 44 44 45 45 45 45 45 45 44 44 44 43 43 42 42 42 42 41 41 41 41 41 42 42 42 43 44 45 47 48 49 50 51 51 51 51 52 53 53 53 51
42 44 44 45 44 44 44 44 44 44 44 45 45 46 47 49 51 52 53 52 51 50 49 47 46 44 42 40 39 38 37 36 35 34 34 34 35 34 34 35 37 39 40 40 41 42 43 44 44 44 44 44 44 43 43 43 42 42 41 41 41 41 41 41 41 41 41 41 41 42 43 44 45 46 47 48 49 49 48 48 48 49 50 51 51 50
40 41 42 43 43 43 43 42 43 43 43 44 44 45 46 47 49 50 50 49 48 47 47 46 45 43 41 40 39 39 38 37 36 34 32 32 33 33 33 34 36 37 37 38 39 41 42 43 43 43 43 43 43 42 42 42 41 41 40 40 40 40 40 40 40 40 40 40 41 41 42 43 44 45 47 47 47 47 46 46 46 47 48 50 50 50
37 39 40 41 41 41 40 40 40 40 41 42 42 43 43 44 46 47 47 45 44 44 44 44 43 42 40 39 39 38 37 37 36 34 32 31 32 32 33 33 34 35 35 36 37 40 41 42 42 43 42 42 42 41 41 40 40 40 39 39 39 40 40 40 40 39 39 40 40 41 42 43 44 45 46 46 46 45 45 45 46 47 48 49 50 50
35 37 38 39 39 38 38 38 38 38 38 39 39 40 40 41 43 44 44 42 42 42 43 42 41 40 39 38 37 36 36 36 35 33 31 31 32 32 32 32 33 33 33 33 34 36 39 41 41 42 41 41 40 40 39 39 39 38 38 38 39 39 39 39 39 39 39 39 39 40 41 42 43 44 45 45 45 44 45 45 46 47 48 49 50 50
33 35 36 37 37 37 37 37 37 37 37 37 37 37 38 39 41 41 41 40 41 42 42 41 40 39 38 37 36 35 34 34 33 31 30 31 31 31 30 31 31 31 30 29 30 33 37 39 40 40 40 40 39 38 38 37 37 37 37 37 38 38 39 39 38 38 38 38 39 40 41 42 43 43 44 44 44 45 45 47 48 48 49 50 50 50
32 33 35 36 37 37 37 38 38 37 37 36 36 36 36 37 38 38 38 39 40 41 41 41 40 39 38 37 37 36 34 32 30 30 29 30 31 30 30 30 31 29 27 26 28 31 35 37 38 39 39 38 37 37 36 35 34 34 34 35 36 37 38 38 38 37 37 37 38 38 39 40 41 42 43 44 44 45 47 48 49 49 49 49 50 50
32 33 34 36 37 38 38 38 38 37 37 36 35 35 35 35 36 36 37 38 39 40 41 41 40 39 37 37 38 37 34 30 29 28 28 30 30 30 30 30 29 27 24 25 27 30 32 34 36 37 37 37 36 35 34 33 32 31 32 33 35 36 36 36 36 36 36 36 36 37 38 39 40 41 42 44 45 46 47 48 49 49 49 49 49 50
31 32 33 34 35 36 37 37 37 36 36 35 35 35 35 35 35 36 38 39 39 40 40 40 39 38 37 36 36 35 32 29 28 27 28 29 29 30 31 30 27 25 23 24 26 28 31 33 35 36 37 36 35 33 31 30 29 29 29 31 33 34 35 34 34 34 34 34 35 35 37 38 39 41 42 44 45 47 48 49 49 49 49 48 49 49
30 30 31 31 32 33 34 34 35 35 35 36 36 36 36 36 37 38 39 39 39 39 39 38 37 37 36 35 34 33 30 28 27 26 27 29 30 31 31 29 25 23 22 23 25 27 30 32 34 36 36 35 33 31 30 28 27 26 27 28 30 31 32 32 33 33 33 33 34 35 36 38 39 41 43 44 46 47 48 48 48 48 48 47 47 47
29 29 29 29 29 30 31 32 33 34 35 36 36 37 37 38 38 38 38 38 37 36 36 35 35 35 35 35 34 32 29 26 24 25 27 30 32 32 30 26 23 21 21 23 24 26 29 31 33 35 35 34 32 30 29 27 25 24 24 26 27 28 29 30 30 31 32 33 34 35 37 38 40 42 43 44 45 46 46 46 47 47 47 46 46 46
28 28 27 27 27 28 29 31 33 34 34 35 35 35 35 35 35 35 35 35 35 34 34 34 34 33 33 33 32 29 26 23 22 24 27 31 33 31 28 24 21 20 21 22 24 26 28 30 32 34 34 33 31 29 27 26 23 22 22 23 25 26 26 27 27 28 29 31 33 35 37 38 40 41 42 42 43 42 42 43 44 45 45 45 45 46
27 26 26 26 27 28 29 31 31 32 32 31 31 31 31 31 32 32 32 32 32 32 32 32 31 31 30 29 27 25 22 20 21 24 28 31 32 30 26 23 21 20 21 22 23 25 27 29 31 32 32 31 29 27 25 23 21 20 19 20 22 23 23 24 24 25 26 28 30 32 34 36 37 38 38 38 38 38 38 39 40 42 43 44 45 46
25 25 25 25 26 27 28 29 29 29 28 28 27 27 27 28 28 28 29 28 28 28 27 27 27 26 25 24 22 21 19 19 21 24 28 31 30 27 25 23 21 21 22 22 23 24 25 27 30 32 31 29 27 24 22 21 20 18 17 18 19 20 20 21 22 23 24 25 26 28 29 31 32 33 33 32 32 33 34 36 38 40 42 44 46 47
22 22 22 23 23 24 25 26 27 26 26 25 25 24 24 24 24 24 24 24 24 24 24 24 24 23 23 21 20 19 19 20 21 24 27 28 28 26 24 23 23 22 21 21 22 24 26 29 30 30 29 26 23 21 21 20 18 16 14 15 17 18 19 20 20 20 21 21 22 24 25 27 28 29 29 30 32 33 35 37 39 41 44 46 48 49
20 20 20 21 22 23 24 24 24 23 22 22 21 21 21 21 21 21 22 22 23 23 24 24 24 24 23 23 22 22 22 22 23 25 26 27 27 26 25 25 24 22 21 20 21 24 27 29 30 29 26 22 20 19 18 18 16 13 12 13 15 17 18 19 19 18 18 18 19 20 22 24 26 27 29 32 35 38 39 39 40 42 44 47 48 48
19 19 19 19 19 20 21 21 20 19 18 17 17 18 18 19 20 21 22 22 23 24 24 24 24 25 25 25 25 25 25 25 25 26 27 27 27 26 26 25 24 22 21 21 23 25 27 28 27 24 21 19 17 17 17 15 14 12 12 13 14 16 18 18 18 16 15 15 15 17 19 21 23 25 28 31 36 40 42 42 42 42 43 45 45 44
18 17 16 15 15 15 15 15 14 14 14 15 16 17 18 19 19 20 20 20 21 22 22 23 24 25 25 26 27 26 26 27 27 28 28 28 27 26 25 24 23 22 20 21 22 24 25 25 23 20 17 16 15 15 15 14 13 12 12 13 15 16 18 18 17 15 14 13 14 15 16 17 19 22 25 29 33 37 40 42 43 44 45 45 45 44
14 13 12 11 11 11 11 11 12 13 14 15 16 16 16 16 16 16 17 17 18 20 22 23 25 26 26 27 27 28 28 29 29 29 29 28 27 25 24 22 21 20 20 19 20 22 22 21 19 17 14 14 13 13 13 12 12 12 13 14 15 16 17 17 16 16 15 14 14 14 15 16 18 20 23 26 30 33 36 38 41 42 44 45 45 45
10 10 9 10 10 11 11 12 13 14 14 14 14 14 14 14 14 15 16 17 19 21 23 25 26 27 27 28 28 29 29 30 30 29 28 27 25 24 22 21 20 19 19 19 19 19 19 18 16 14 13 12 12 12 11 11 12 13 14 14 15 16 17 17 17 17 16 16 15 15 16 17 18 20 22 25 27 29 31 32 34 35 36 37 37 38
10 10 11 11 11 12 12 13 13 13 14 14 14 13 13 14 15 16 17 19 20 22 24 25 26 27 28 29 29 30 30 30 30 28 26 24 23 21 21 20 20 19 19 19 19 18 17 15 13 12 11 11 10 10 10 11 13 14 15 15 16 17 18 18 19 19 19 18 18 17 18 18 19 21 22 24 26 27 28 28 28 28 28 28 28 29
12 12 12 12 12 13 13 14 14 14 14 14 15 15 15 16 17 18 20 21 22 23 24 25 27 28 29 30 30 30 30 28 27 25 23 21 20 20 20 20 20 19 19 19 19 18 16 13 11 10 9 9 9 10 11 13 15 16 17 16 17 18 19 20 21 22 21 21 21 20 20 20 21 22 24 26 27 28 29 29 30 30 30 30 30 31
13 14 14 14 14 15 15 15 15 15 16 16 17 17 18 19 20 21 22 23 23 23 24 25 25 26 27 27 27 27 25 24 22 21 20 19 19 19 20 21 21 21 20 19 17 16 14 12 10 8 8 8 9 11 13 15 17 18 18 18 18 19 21 23 24 24 24 24 24 23 23 23 24 25 27 29 31 32 33 34 34 34 34 35 35 35
15 15 15 15 15 16 16 16 17 17 18 18 19 19 20 21 21 21 21 21 20 20 19 20 20 20 21 21 20 19 19 18 17 17 18 18 19 20 21 21 21 21 19 18 16 13 11 10 9 9 10 11 13 14 16 17 18 19 20 20 21 22 23 25 25 26 26 26 27 26 26 25 26 27 29 32 34 35 36 37 37 37 37 37 38 38
15 16 15 15 16 16 16 17 17 18 18 19 19 19 18 19 18 17 16 15 14 14 13 13 13 13 14 14 14 14 14 14 14 15 16 18 19 21 22 22 21 19 18 16 14 12 10 10 10 12 13 15 16 17 18 19 21 22 23 23 24 24 25 26 27 27 28 28 29 29 28 28 28 29 31 34 36 38 39 39 39 39 39 39 39 39
14 14 14 14 14 15 16 16 16 16 16 15 14 14 13 13 13 12 11 10 9 9 9 9 9 9 10 11 12 12 13 13 14 15 17 18 20 21 21 20 19 18 16 15 14 12 11 12 14 15 17 18 19 21 22 23 24 25 25 26 26 26 26 27 27 28 28 29 29 29 30 30 30 31 32 34 36 37 39 39 39 39 39 38 38 38
11 11 12 12 12 13 13 12 12 11 10 10 9 9 8 8 8 8 8 7 7 7 8 8 8 9 10 11 12 12 13 13 14 16 18 19 20 19 19 18 17 16 16 15 15 15 15 16 18 20 22 22 23 24 25 26 27 27 26 26 26 26 26 26 27 27 27 27 28 28 29 29 29 30 30 31 33 34 36 36 37 36 36 35 35 34
Wind_Direction
278 278 278 278 278 279 279 280 281 282 283 284 284 285 285 285 284 282 279 275 271 267 263 258 253 248 245 243 243 243 244 244 245 245 245 246 246 246 247 247 248 248 248 248 247 247 247 247 247 248 248 249 250 250 249 247 245 243 241 241 242 244 246 247 247 246 246 245 245 245 245 245 246 246 245 244 244 245 248 251 253 254 254 251 249 248
277 277 277 277 277 278 278 278 280 281 282 283 284 284 284 285 285 284 282 278 273 268 264 260 255 250 246 243 242 242 243 244 244 244 244 245 245 245 245 246 246 247 247 247 247 247 247 248 248 248 248 249 250 250 250 249 247 244 243 242 243 244 245 247 247 248 247 246 246 246 246 246 245 244 241 240 241 243 247 250 252 253 252 249 247 247
277 277 277 276 276 276 276 277 278 279 280 281 282 283 283 283 284 284 283 280 276 270 266 261 257 253 248 243 241 241 242 243 243 243 243 244 244 244 244 244 244 245 246 246 246 246 247 247 248 248 248 248 249 250 251 250 248 246 245 244 243 244 245 246 248 248 248 248 247 247 247 247 247 244 240 237 238 241 245 247 249 249 248 246 244 245
277 277 276 276 275 275 275 276 276 277 278 279 280 281 282 282 282 283 283 282 278 273 268 263 259 254 249 244 241 240 241 242 242 243 243 243 243 243 243 243 243 243 244 245 246 246 246 247 247 247 247 248 249 250 251 251 250 248 246 245 244 244 245 246 247 249 250 249 249 249 248 248 248 247 243 239 238 240 242 244 246 246 246 244 244 245
277 277 277 276 276 275 275 275 276 276 277 278 279 280 280 280 280 281 281 281 280 276 271 266 261 256 251 246 242 240 239 241 242 242 242 242 242 242 242 242 242 242 242 243 245 246 247 248 248 247 247 247 248 249 251 251 251 249 248 246 245 245 244 245 247 248 250 250 250 250 250 249 249 249 248 245 242 241 242 243 244 245 245 246 247 248
278 277 277 277 276 276 275 275 275 276 276 277 278 278 278 279 279 279 280 281 280 277 273 268 263 258 253 248 243 240 239 240 241 242 242 242 241 241 241 241 240 240 240 241 243 245 247 248 248 248 247 247 248 249 250 251 251 250 249 248 247 246 245 245 246 247 248 249 250 251 251 251 251 251 251 249 246 245 245 245 245 246 246 247 248 249
277 277 277 277 276 276 276 276 275 275 276 277 277 277 277 278 278 279 280 280 280 277 274 269 265 260 255 250 245 241 239 240 241 242 241 241 241 240 240 239 239 238 238 239 241 244 246 248 248 248 247 247 247 249 250 251 251 251 250 249 248 247 246 245 245 246 246 247 249 250 250 251 252 252 252 251 250 248 247 247 247 246 247 247 248 249
276 276 276 276 277 277 277 276 275 275 276 277 277 277 276 277 277 278 279 279 279 278 275 270 266 262 257 252 247 243 241 241 241 242 241 240 240 239 239 238 238 237 237 237 238 241 244 246 247 247 247 247 247 248 249 250 251 251 251 250 250 249 248 247 246 245 245 246 247 248 249 250 251 252 252 252 251 250 249 248 247 247 247 247 247 248
274 274 274 276 277 277 276 276 275 275 276 276 276 275 275 275 275 276 277 278 278 277 274 271 267 263 258 254 249 245 243 242 243 243 242 240 239 239 238 237 237 236 236 236 237 238 241 243 245 246 246 247 248 248 249 250 250 251 251 251 251 250 250 249 248 247 246 246 246 246 247 248 249 250 251 251 251 250 249 248 247 247 247 247 247 248
273 273 272 271 270 270 270 272 274 276 276 275 274 274 274 274 275 276 277 277 277 275 273 270 268 265 261 256 252 248 245 245 245 244 243 241 240 238 237 237 236 235 235 235 235 237 239 241 243 244 246 247 248 248 249 249 250 251 251 251 252 251 251 250 249 249 248 247 246 246 246 247 248 249 249 250 250 250 248 247 246 246 246 247 247 247
273 272 270 267 264 263 265 269 273 275 275 274 273 272 271 272 274 275 276 276 276 274 272 270 268 266 263 259 255 250 248 248 247 246 244 243 241 239 237 236 235 235 235 234 235 236 237 239 241 243 245 246 247 248 248 249 250 250 251 251 252 252 252 251 251 250 249 248 248 247 247 247 247 247 248 249 250 250 248 246 244 244 245 246 246 247
273 272 270 268 265 264 266 270 273 275 274 273 272 271 271 271 273 275 276 276 276 275 273 270 268 266 264 261 258 254 251 251 250 248 246 244 241 239 237 236 235 235 234 234 235 236 237 238 240 242 244 245 246 247 248 248 249 250 250 251 251 252 251 251 251 251 250 249 249 248 247 247 246 246 247 248 249 249 249 246 244 243 243 244 246 247
274 273 272 270 269 268 269 271 273 273 273 272 271 271 271 272 274 275 276 276 276 275 273 270 268 266 264 262 260 257 256 254 251 249 247 244 241 239 237 235 235 234 234 235 235 236 237 238 240 241 243 244 245 246 247 248 248 249 250 250 251 251 251 251 251 251 250 250 249 249 248 247 246 246 246 247 248 249 249 248 246 244 243 245 246 248
276 275 274 273 272 271 271 271 271 271 270 270 271 271 272 273 274 274 274 274 274 273 271 270 268 266 264 262 261 259 259 257 254 251 247 244 240 238 236 234 234 234 234 234 235 236 236 238 239 240 242 243 244 245 246 247 248 248 249 250 250 251 251 251 251 251 251 250 250 249 248 247 246 245 245 245 246 247 249 249 248 247 245 246 247 249
276 275 274 273 273 273 272 271 270 269 269 270 271 272 273 273 272 272 271 271 271 271 271 270 268 267 266 264 262 261 260 257 255 252 248 243 240 237 235 234 233 234 234 234 235 235 236 237 238 239 240 242 243 244 245 246 246 247 248 248 249 250 251 251 251 251 251 250 250 249 248 247 246 245 244 244 244 246 247 249 250 249 247 247 248 249
274 272 271 269 268 268 269 270 270 271 271 271 271 271 272 271 271 271 271 272 272 272 271 270 270 268 266 264 263 262 260 257 253 250 248 244 239 236 234 233 233 233 233 234 234 235 235 236 237 238 239 240 241 242 244 244 245 246 247 247 248 249 250 250 251 251 251 250 250 249 249 247 246 244 243 243 243 244 245 247 249 249 248 248 248 249
273 272 270 268 265 264 264 265 268 270 272 273 272 271 271 271 271 272 274 275 275 275 273 271 270 269 268 265 263 261 259 256 252 249 247 243 239 235 232 232 232 233 232 233 233 234 234 235 236 236 238 239 240 241 242 243 244 245 246 246 247 248 249 249 250 250 250 250 250 249 249 248 246 245 243 242 242 242 243 245 247 248 248 248 249 250
272 272 271 269 267 264 262 262 264 267 271 272 272 271 270 270 271 274 276 278 278 277 275 273 272 271 270 268 265 262 260 257 254 251 247 243 238 234 232 232 232 232 232 232 232 233 233 234 234 235 236 237 238 239 240 241 242 243 244 245 246 247 248 248 249 249 249 249 249 249 249 248 246 245 243 242 241 241 241 243 245 247 248 249 250 252
271 271 271 270 268 266 263 261 261 263 266 268 270 270 270 269 271 275 277 278 278 277 276 275 274 273 273 271 268 265 264 260 258 254 250 244 239 235 233 232 232 232 232 231 232 232 232 232 233 233 234 235 237 238 239 240 241 242 243 244 245 246 246 247 247 248 248 248 249 249 248 248 247 245 244 242 241 240 240 240 242 245 247 250 253 254
269 269 269 269 269 267 265 262 260 259 260 263 265 267 268 269 273 276 277 278 277 276 275 276 276 277 277 275 273 270 267 263 260 256 252 247 242 238 234 232 231 231 231 230 230 231 231 231 231 232 233 234 235 236 237 238 239 240 241 242 243 244 245 246 246 247 247 248 248 248 248 247 247 246 244 243 241 240 239 239 241 243 247 251 255 257
266 266 267 267 267 266 264 262 260 259 259 260 262 264 267 271 275 277 277 276 275 275 274 275 277 278 278 277 275 272 268 263 260 257 254 250 245 240 235 232 231 230 229 229 229 230 230 230 230 230 231 232 233 234 235 236 237 238 239 241 242 243 244 244 245 246 246 247 247 247 247 247 246 246 244 243 242 240 239 239 240 242 245 250 254 257
263 264 264 264 264 263 262 261 260 259 259 259 260 263 267 272 275 274 272 272 272 272 274 275 277 279 279 277 274 272 269 265 261 258 256 253 248 242 235 232 230 229 228 228 228 228 228 229 229 229 229 230 231 232 233 233 234 236 237 239 240 241 242 243 244 245 245 246 246 247 247 246 246 245 244 243 241 240 239 239 239 241 244 248 253 256
260 262 262 262 261 260 260 259 259 259 259 258 259 261 265 268 268 266 264 264 265 266 268 271 274 276 277 277 277 275 273 268 263 259 256 253 248 241 236 232 230 228 227 227 227 228 227 227 227 227 227 228 229 229 230 231 232 233 235 237 239 240 241 242 243 244 245 245 245 246 246 245 245 244 243 241 240 239 238 238 239 240 242 246 250 253
260 261 262 262 261 260 259 259 259 258 258 258 258 258 260 261 260 259 258 259 261 263 264 266 268 269 269 270 272 273 271 267 262 256 253 250 245 240 236 232 229 227 226 226 226 227 226 226 226 226 226 226 227 227 228 229 230 232 234 236 238 239 241 242 242 243 244 244 244 245 245 244 244 242 241 239 237 236 235 236 236 238 241 244 248 250
260 261 261 261 261 260 259 259 258 258 259 258 258 257 256 256 256 256 257 259 261 262 264 265 265 265 265 265 265 265 264 262 259 254 251 248 244 240 234 230 228 227 225 225 225 225 225 225 225 224 224 224 225 225 226 227 228 230 233 235 237 239 240 241 242 242 243 243 243 244 244 243 242 241 239 236 234 232 231 232 233 235 238 241 244 246
261 261 261 261 260 260 259 258 258 258 258 258 258 258 258 257 257 257 258 259 260 262 263 263 264 264 265 265 264 263 261 259 257 255 251 249 245 239 232 228 227 226 224 223 223 224 225 224 224 223 222 222 223 223 224 225 227 229 232 234 237 238 240 241 241 242 242 242 242 242 242 242 241 239 237 234 231 229 227 228 229 232 235 238 240 241
262 262 262 261 260 260 259 258 257 257 257 257 258 258 259 259 260 260 260 260 260 261 262 263 264 265 266 266 265 263 261 259 256 252 249 248 246 239 231 227 225 224 222 221 222 223 224 224 223 221 221 221 221 222 223 224 227 229 232 234 237 239 240 241 241 241 241 241 241 241 241 240 239 237 234 231 228 225 224 225 227 229 232 235 237 238
262 262 262 262 261 260 259 258 257 257 257 257 257 258 258 259 260 261 261 260 260 260 261 262 263 265 266 266 265 264 261 259 255 251 248 248 246 239 230 226 223 221 219 220 221 223 223 223 222 220 220 219 220 221 222 224 226 229 232 234 237 239 240 241 242 241 241 241 240 239 239 238 237 235 232 228 225 223 222 223 225 227 230 232 234 236
261 261 261 261 261 260 259 258 257 257 257 257 257 257 257 257 258 259 259 259 259 259 259 261 263 265 267 267 266 264 260 256 253 250 248 248 244 237 229 224 220 217 218 221 223 224 223 222 221 219 219 218 219 220 222 224 226 229 232 235 237 239 241 241 242 241 241 240 239 238 237 236 234 231 228 225 222 221 221 223 224 226 228 231 233 235
261 259 259 259 259 259 259 258 258 258 258 258 258 258 257 256 256 256 256 256 256 256 258 260 263 265 267 267 266 262 256 251 248 248 247 246 240 233 226 221 217 216 219 225 227 226 223 221 219 218 218 218 218 220 222 224 226 229 232 235 237 239 241 241 242 241 240 239 238 237 235 233 231 228 224 221 220 220 221 223 225 226 227 229 232 235
261 258 257 256 256 257 257 258 258 259 259 259 259 258 257 255 254 253 252 252 253 255 257 259 262 264 265 265 264 260 254 248 245 245 243 241 236 228 221 217 216 218 223 229 230 227 223 220 218 217 216 217 218 219 221 223 225 228 232 235 237 239 240 241 241 241 239 238 236 235 233 230 228 224 221 219 219 220 222 224 225 226 227 229 232 235
260 258 256 255 255 255 256 257 258 259 259 259 258 257 256 255 253 252 251 251 253 255 257 259 261 262 262 261 260 258 253 249 245 242 238 236 230 222 215 215 218 223 228 231 230 227 223 219 216 215 215 215 215 216 217 220 223 227 231 233 236 238 239 239 239 239 238 236 234 233 230 228 225 222 220 219 220 222 224 225 226 226 227 229 231 235
259 257 256 255 254 254 255 255 256 257 256 256 256 256 255 255 254 254 254 254 255 256 258 259 260 260 259 258 257 255 251 248 244 239 233 229 223 216 213 216 222 228 232 232 229 225 221 218 214 212 212 212 212 212 214 218 222 226 230 233 235 236 237 237 237 237 236 234 232 230 228 226 223 221 220 221 222 224 226 226 226 226 226 228 230 233
259 257 256 255 254 253 253 253 253 253 252 253 253 254 255 255 256 256 256 256 257 257 257 258 257 257 256 256 255 253 249 245 242 236 228 221 216 212 212 217 225 231 233 232 228 224 220 217 213 211 209 208 208 209 212 216 221 226 230 233 234 234 234 234 233 233 233 232 230 228 226 224 223 221 222 223 224 226 226 226 225 224 224 225 227 229
259 257 254 253 251 250 249 249 249 249 249 250 251 252 254 255 255 256 256 256 256 255 255 255 255 254 254 254 253 251 246 241 237 231 222 216 212 211 214 221 229 234 235 232 227 223 220 217 213 209 206 205 206 209 213 217 221 226 230 232 232 232 231 231 230 230 230 228 227 226 225 223 222 222 222 223 225 226 226 226 225 223 222 222 223 223
257 254 251 249 247 246 245 246 246 247 248 248 249 250 252 252 253 253 253 253 253 252 252 252 253 253 253 252 251 247 241 235 231 225 218 213 210 212 219 228 235 239 237 233 228 224 220 216 211 206 204 204 207 211 215 218 222 226 230 231 231 230 229 229 228 228 227 226 225 224 223 222 221 222 222 223 224 225 226 225 224 222 220 219 218 218
252 249 246 244 243 242 243 244 245 247 248 249 250 250 250 250 250 250 249 249 250 250 250 251 251 251 250 248 245 241 235 230 226 221 216 212 212 216 227 236 242 242 239 235 229 223 218 212 207 204 203 206 210 215 218 219 222 226 229 230 229 229 228 227 226 226 225 224 223 222 222 221 220 221 222 223 225 226 226 226 224 221 219 216 215 215
246 244 242 241 241 241 242 244 246 248 250 251 251 250 249 248 248 247 247 246 246 246 246 247 248 248 247 243 239 235 232 230 226 221 216 213 215 222 234 243 245 243 239 235 229 221 212 207 204 204 205 208 213 217 220 220 221 223 226 226 226 225 224 223 222 222 222 222 222 221 221 220 220 220 221 223 226 228 228 227 224 220 217 215 214 214
243 242 241 241 241 242 244 246 248 250 251 251 251 249 247 246 245 244 243 243 243 243 244 245 246 247 246 244 241 239 237 235 230 224 219 218 222 230 239 245 245 243 239 233 224 215 206 203 202 203 206 209 213 217 219 219 220 222 223 222 222 220 218 216 215 215 216 217 218 220 220 220 219 218 219 222 225 227 227 225 222 219 216 214 213 213
245 244 243 243 243 244 246 248 249 250 249 248 247 245 243 242 241 241 242 243 243 244 244 245 245 245 245 244 244 243 241 237 232 228 226 227 231 237 242 244 244 241 237 229 218 208 203 202 201 202 204 207 210 212 214 216 219 221 221 221 220 217 212 208 206 206 207 210 213 216 217 218 218 218 219 221 223 224 223 222 220 219 218 217 216 215
253 252 249 247 245 245 246 247 246 245 243 241 241 241 242 243 244 245 245 245 244 243 243 242 241 241 241 241 241 240 239 236 234 233 234 235 238 240 242 242 241 238 233 224 213 205 201 200 199 200 202 203 204 205 208 212 216 220 222 224 223 217 209 203 201 200 201 204 208 212 214 214 215 217 220 223 224 224 222 220 219 218 218 218 219 219
259 258 255 250 246 244 243 242 242 241 241 243 245 248 249 249 249 248 245 242 239 237 235 234 234 233 233 235 236 235 234 234 234 235 237 238 239 240 240 240 238 235 228 218 208 201 198 197 195 195 197 197 197 198 201 207 214 220 226 229 226 217 208 203 200 199 199 201 205 209 211 212 215 219 223 226 227 225 223 221 219 218 218 218 219 220
259 258 257 254 251 248 247 248 249 251 252 254 254 253 251 248 244 240 235 231 228 228 227 227 226 226 227 229 231 232 233 234 235 237 238 238 238 237 237 236 234 230 221 209 199 194 192 191 190 190 190 191 191 193 195 204 214 223 229 230 226 219 215 210 204 199 198 199 201 204 207 211 216 219 222 224 224 224 222 221 221 220 220 220 220 220
263 265 266 266 264 262 260 259 258 256 255 253 250 246 240 235 230 227 225 223 224 225 226 225 223 223 225 229 231 232 234 236 237 237 237 236 235 234 233 232 229 221 209 197 186 180 179 180 181 181 182 185 188 191 196 207 219 227 230 229 224 221 217 210 202 196 193 192 193 197 201 206 210 212 213 214 215 215 215 215 215 216 216 217 217 215
267 268 268 266 263 259 256 253 249 246 242 239 235 231 228 226 225 225 224 224 225 227 228 226 226 227 230 232 234 235 236 236 237 236 234 233 232 230 228 225 219 208 193 179 170 165 163 164 166 169 173 181 190 199 209 220 226 229 228 226 222 217 209 200 194 190 186 184 183 185 190 194 197 199 200 200 200 199 198 197 197 196 195 194 193 191
259 258 257 255 251 248 244 240 236 234 231 229 227 225 225 226 227 227 227 227 227 228 229 229 230 231 233 234 235 236 236 235 234 233 231 230 228 225 220 213 202 189 175 165 160 157 156 157 159 164 173 185 198 212 222 227 228 226 222 218 214 208 200 192 186 181 177 175 174 175 177 181 184 186 186 185 183 181 179 177 176 174 172 170 169 169
253 251 249 247 244 241 238 235 232 230 227 226 225 225 226 227 228 228 228 229 229 229 229 230 230 231 231 232 233 233 233 233 232 231 229 227 222 215 206 195 183 171 163 157 154 153 153 154 159 170 188 206 218 224 223 222 220 216 209 203 199 194 188 182 176 172 169 168 167 167 169 172 175 177 176 173 170 168 167 165 164 163 163 163 163 163
253 250 248 245 243 241 239 236 233 229 226 224 223 223 224 225 225 225 225 227 228 228 228 229 228 228 227 227 227 228 229 230 229 227 223 218 210 199 187 175 165 158 154 152 152 153 156 162 173 190 206 218 224 224 217 211 205 199 191 185 182 179 175 171 166 163 163 163 162 162 163 166 169 170 169 166 163 161 160 159 159 159 159 160 161 162
252 248 247 245 244 242 239 235 231 227 222 220 218 218 218 219 219 218 219 221 224 225 226 225 224 223 222 221 222 223 224 224 222 218 212 204 193 181 169 159 152 148 148 149 152 157 165 177 191 202 208 210 211 209 202 194 188 181 175 171 169 167 164 161 158 157 157 157 158 158 159 161 163 163 163 162 160 158 157 156 156 156 157 158 159 160
245 242 241 240 239 236 233 229 224 219 215 212 209 206 205 205 206 207 208 209 211 213 213 212 211 211 212 212 213 214 213 211 208 202 195 186 176 166 157 150 146 146 149 153 159 168 180 191 198 200 199 198 195 191 185 179 174 169 165 162 161 160 158 156 154 153 154 154 154 155 156 157 159 160 160 160 158 157 156 156 156 156 157 158 159 161
229 227 225 225 223 221 218 214 208 201 195 189 182 176 173 173 176 178 179 180 182 186 189 189 188 189 192 195 196 195 194 190 186 182 177 169 162 155 150 147 147 150 156 161 167 174 184 192 195 193 189 186 183 180 175 171 167 165 162 159 159 158 157 156 155 154 154 154 155 155 157 158 159 160 161 161 160 159 158 158 158 159 159 160 162 163
Height
2882 2882 2882 2883 2883 2881 2878 2878 2878 2877 2875 2874 2874 2875 2874 2873 2873 2876 2880 2883 2884 2884 2885 2886 2888 2890 2892 2895 2898 2899 2900 2902 2904 2906 2907 2909 2910 2912 2913 2915 2916 2917 2918 2920 2922 2923 2924 2925 2927 2928 2930 2931 2933 2934 2937 2939 2942 2944 2946 2948 2949 2950 2952 2953 2955 2957 2959 2961 2963 2965 2967 2969 2972 2973 2974 2976 2978 2981 2983 2985 2987 2989 2990 2992 2993 2996
2877 2877 2878 2878 2878 2877 2874 2874 2875 2875 2872 2870 2870 2870 2870 2870 2869 2870 2873 2877 2878 2878 2878 2880 2881 2883 2885 2888 2891 2893 2894 2895 2898 2899 2901 2903 2904 2906 2908 2910 2911 2912 2913 2915 2916 2918 2918 2920 2921 2923 2925 2927 2928 2929 2931 2934 2937 2939 2941 2943 2944 2946 2947 2949 2951 2953 2954 2956 2958 2960 2962 2964 2967 2968 2970 2972 2973 2976 2978 2980 2983 2985 2986 2988 2989 2991
2873 2872 2873 2873 2873 2873 2870 2870 2871 2872 2870 2868 2866 2866 2866 2866 2865 2865 2867 2870 2872 2873 2873 2874 2875 2877 2879 2881 2883 2885 2887 2889 2891 2893 2895 2897 2898 2900 2902 2904 2905 2907 2908 2909 2911 2912 2913 2914 2917 2919 2921 2922 2923 2924 2926 2928 2932 2935 2937 2938 2940 2941 2943 2944 2946 2948 2949 2952 2953 2956 2958 2959 2962 2964 2966 2967 2968 2971 2973 2976 2978 2981 2983 2984 2985 2986
2868 2868 2867 2868 2868 2868 2867 2867 2867 2867 2866 2864 2863 2863 2863 2862 2860 2860 2861 2864 2866 2867 2867 2868 2869 2871 2872 2874 2876 2878 2881 2883 2885 2887 2888 2890 2892 2894 2896 2898 2900 2901 2902 2903 2905 2906 2908 2909 2911 2914 2916 2917 2918 2919 2921 2923 2926 2929 2932 2933 2935 2937 2938 2940 2941 2943 2944 2947 2949 2951 2953 2955 2957 2959 2961 2962 2964 2966 2968 2971 2974 2976 2978 2979 2981 2982
2863 2863 2862 2863 2863 2863 2862 2863 2863 2863 2862 2861 2860 2859 2858 2857 2856 2856 2856 2858 2861 2862 2862 2863 2863 2864 2866 2867 2869 2872 2875 2877 2879 2881 2883 2884 2886 2888 2890 2892 2894 2896 2897 2898 2899 2900 2902 2904 2906 2909 2911 2913 2913 2915 2916 2918 2921 2924 2927 2928 2930 2932 2934 2935 2937 2938 2939 2942 2944 2946 2948 2950 2952 2954 2956 2958 2960 2962 2964 2966 2969 2971 2973 2975 2976 2978
2857 2858 2858 2859 2858 2858 2857 2858 2859 2858 2858 2857 2856 2855 2854 2853 2852 2852 2852 2854 2856 2857 2857 2857 2858 2858 2859 2861 2863 2866 2869 2871 2873 2874 2876 2878 2880 2882 2884 2886 2888 2890 2892 2893 2894 2895 2897 2899 2901 2904 2906 2908 2909 2910 2912 2914 2916 2919 2921 2923 2926 2928 2929 2931 2933 2934 2935 2937 2938 2940 2943 2945 2947 2949 2951 2953 2955 2957 2959 2961 2963 2966 2968 2969 2972 2973
2852 2853 2853 2853 2853 2853 2853 2853 2854 2854 2854 2852 2851 2850 2850 2849 2848 2848 2848 2848 2850 2852 2853 2853 2853 2853 2854 2856 2858 2860 2863 2865 2866 2868 2870 2872 2874 2876 2878 2880 2882 2884 2886 2888 2890 2891 2892 2894 2896 2898 2901 2903 2904 2906 2908 2909 2911 2913 2916 2918 2921 2923 2925 2927 2928 2930 2931 2932 2934 2936 2938 2940 2942 2944 2946 2948 2950 2952 2954 2957 2958 2961 2963 2965 2967 2969
2848 2848 2849 2849 2848 2848 2848 2848 2849 2849 2850 2848 2847 2846 2845 2845 2844 2844 2843 2844 2845 2847 2848 2848 2848 2849 2849 2851 2853 2854 2857 2858 2860 2862 2864 2866 2868 2870 2873 2875 2877 2878 2880 2883 2884 2886 2888 2889 2891 2893 2895 2898 2900 2902 2903 2905 2907 2908 2911 2913 2915 2918 2920 2922 2923 2925 2927 2928 2930 2932 2933 2935 2938 2940 2942 2943 2945 2947 2949 2951 2953 2956 2958 2960 2962 2964
2843 2843 2844 2845 2845 2845 2844 2843 2843 2845 2846 2845 2843 2842 2842 2841 2841 2840 2840 2840 2841 2843 2844 2844 2844 2844 2845 2846 2848 2849 2851 2853 2854 2855 2858 2860 2862 2865 2867 2869 2871 2873 2875 2877 2879 2881 2883 2885 2887 2888 2890 2893 2895 2897 2899 2901 2903 2904 2906 2908 2910 2912 2914 2917 2918 2920 2922 2924 2925 2927 2929 2931 2933 2936 2938 2939 2940 2942 2944 2946 2948 2950 2953 2955 2958 2960
2839 2839 2840 2842 2843 2843 2841 2838 2838 2840 2842 2841 2839 2838 2838 2838 2837 2837 2837 2837 2837 2838 2840 2840 2840 2840 2840 2841 2843 2845 2846 2847 2848 2850 2852 2854 2857 2859 2861 2863 2865 2867 2869 2872 2874 2876 2878 2880 2882 2884 2886 2888 2890 2893 2895 2896 2898 2900 2902 2903 2906 2908 2909 2911 2913 2915 2917 2918 2920 2923 2924 2927 2929 2931 2933 2935 2937 2938 2939 2941 2943 2945 2948 2950 2953 2955
2834 2835 2836 2837 2838 2838 2837 2835 2835 2836 2838 2837 2836 2835 2835 2835 2834 2834 2833 2833 2833 2834 2836 2836 2836 2836 2837 2837 2839 2841 2842 2842 2843 2844 2847 2849 2851 2854 2856 2858 2860 2862 2864 2866 2868 2871 2873 2876 2878 2880 2882 2884 2886 2888 2890 2892 2894 2896 2897 2899 2901 2903 2904 2906 2908 2910 2912 2913 2915 2917 2919 2922 2924 2926 2928 2930 2932 2934 2935 2936 2938 2940 2943 2945 2948 2950
2831 2831 2832 2832 2832 2833 2832 2832 2832 2833 2833 2833 2832 2831 2831 2831 2831 2831 2830 2829 2829 2831 2832 2833 2833 2833 2833 2834 2834 2835 2837 2838 2838 2840 2842 2844 2846 2848 2851 2853 2855 2857 2859 2861 2863 2866 2868 2871 2873 2875 2877 2879 2881 2883 2885 2888 2889 2891 2893 2895 2896 2898 2900 2902 2903 2905 2907 2908 2910 2912 2914 2916 2918 2921 2923 2926 2928 2929 2931 2932 2933 2935 2938 2940 2943 2945
2827 2828 2828 2827 2828 2828 2828 2828 2829 2829 2829 2829 2828 2827 2827 2828 2828 2829 2828 2826 2826 2828 2828 2829 2828 2829 2829 2830 2830 2831 2832 2833 2834 2835 2837 2839 2841 2843 2846 2848 2850 2852 2854 2856 2858 2861 2863 2866 2868 2870 2873 2875 2877 2879 2881 2883 2885 2887 2888 2890 2892 2893 2895 2897 2899 2900 2902 2904 2905 2907 2909 2911 2913 2916 2918 2921 2923 2925 2927 2928 2930 2931 2933 2936 2938 2940
2824 2824 2824 2823 2823 2823 2824 2825 2825 2825 2825 2825 2825 2824 2824 2825 2826 2826 2824 2823 2823 2824 2825 2825 2824 2825 2826 2827 2827 2828 2829 2829 2830 2831 2832 2834 2836 2838 2841 2843 2845 2847 2849 2851 2853 2856 2858 2861 2863 2865 2868 2870 2872 2874 2877 2879 2881 2882 2884 2886 2887 2889 2890 2892 2894 2896 2898 2899 2901 2903 2904 2906 2908 2910 2913 2915 2918 2921 2923 2924 2926 2928 2929 2931 2933 2935
2822 2822 2821 2820 2820 2820 2821 2821 2821 2821 2821 2822 2822 2822 2822 2822 2822 2822 2821 2820 2820 2821 2822 2821 2821 2821 2822 2823 2824 2825 2825 2826 2827 2827 2829 2830 2832 2834 2836 2838 2840 2842 2844 2846 2848 2851 2853 2856 2858 2861 2863 2866 2868 2870 2872 2874 2876 2878 2879 2881 2883 2884 2886 2888 2890 2891 2893 2895 2896 2898 2899 2901 2903 2905 2908 2910 2913 2916 2918 2920 2922 2924 2925 2928 2929 2931
2818 2818 2818 2818 2818 2818 2818 2818 2818 2818 2818 2818 2819 2819 2819 2819 2818 2818 2818 2817 2818 2818 2818 2818 2817 2817 2818 2819 2820 2822 2823 2823 2823 2824 2826 2826 2827 2830 2833 2834 2835 2837 2839 2842 2843 2845 2848 2851 2854 2856 2859 2862 2864 2866 2868 2870 2872 2873 2875 2877 2878 2880 2882 2883 2885 2887 2888 2890 2891 2893 2894 2896 2898 2900 2902 2905 2908 2911 2913 2916 2918 2920 2922 2923 2925 2926
2815 2814 2814 2814 2813 2814 2815 2815 2815 2815 2815 2815 2816 2816 2816 2815 2815 2815 2816 2815 2815 2815 2815 2815 2815 2815 2814 2815 2817 2818 2820 2820 2820 2820 2821 2821 2823 2826 2829 2831 2831 2832 2834 2837 2839 2841 2843 2847 2850 2852 2855 2858 2860 2862 2864 2866 2868 2869 2871 2873 2875 2876 2878 2879 2881 2882 2884 2885 2886 2888 2889 2891 2893 2895 2897 2900 2903 2906 2908 2912 2914 2916 2918 2919 2921 2923
2811 2811 2810 2810 2810 2810 2811 2812 2812 2812 2812 2812 2812 2812 2812 2812 2813 2813 2813 2813 2813 2813 2812 2812 2812 2812 2812 2813 2813 2815 2817 2817 2817 2817 2817 2818 2820 2823 2825 2827 2827 2828 2830 2832 2834 2837 2840 2843 2845 2848 2851 2853 2856 2858 2860 2862 2864 2866 2868 2869 2871 2873 2874 2875 2877 2878 2879 2880 2882 2883 2884 2886 2888 2890 2892 2894 2897 2900 2903 2907 2910 2912 2914 2916 2918 2919
2807 2807 2807 2806 2806 2807 2807 2807 2808 2809 2810 2810 2809 2809 2809 2809 2810 2810 2810 2810 2810 2810 2810 2810 2809 2810 2810 2810 2811 2813 2814 2815 2814 2814 2815 2815 2817 2819 2821 2822 2823 2823 2826 2828 2831 2833 2836 2838 2841 2844 2847 2849 2852 2854 2856 2858 2860 2862 2864 2865 2867 2868 2870 2872 2873 2874 2875 2876 2877 2878 2880 2881 2883 2885 2887 2889 2892 2895 2898 2902 2905 2908 2910 2912 2914 2915
2804 2804 2803 2803 2803 2803 2803 2803 2804 2806 2807 2807 2807 2806 2806 2806 2806 2807 2806 2807 2808 2808 2808 2808 2808 2808 2808 2808 2809 2810 2812 2812 2812 2811 2812 2812 2813 2815 2817 2818 2819 2820 2822 2824 2826 2829 2832 2835 2838 2840 2843 2846 2848 2850 2852 2854 2856 2858 2860 2862 2863 2865 2866 2868 2869 2870 2871 2872 2873 2874 2875 2877 2878 2880 2882 2884 2887 2890 2893 2896 2900 2903 2906 2908 2910 2912
2801 2800 2799 2800 2801 2800 2799 2800 2801 2802 2803 2803 2803 2803 2802 2803 2803 2803 2803 2804 2805 2805 2805 2805 2804 2805 2806 2807 2807 2808 2809 2809 2809 2809 2808 2809 2809 2810 2813 2814 2815 2816 2818 2820 2823 2825 2828 2831 2834 2836 2839 2842 2844 2846 2848 2851 2853 2855 2856 2858 2859 2861 2862 2864 2865 2866 2867 2868 2869 2870 2871 2872 2873 2875 2877 2879 2882 2885 2888 2891 2894 2898 2901 2903 2906 2908
2797 2795 2795 2797 2797 2797 2796 2796 2797 2798 2799 2800 2800 2800 2799 2800 2800 2801 2801 2802 2802 2802 2802 2802 2802 2802 2803 2803 2804 2804 2806 2806 2806 2806 2807 2806 2806 2807 2810 2811 2812 2813 2815 2817 2819 2822 2825 2828 2830 2833 2835 2838 2840 2843 2845 2847 2849 2851 2853 2854 2856 2857 2858 2860 2861 2862 2863 2864 2865 2866 2867 2868 2869 2871 2873 2874 2877 2880 2883 2886 2889 2893 2896 2899 2902 2903
2793 2791 2791 2792 2793 2793 2793 2793 2793 2794 2795 2796 2797 2798 2799 2800 2800 2800 2800 2800 2800 2800 2800 2799 2799 2800 2800 2800 2800 2801 2802 2803 2803 2804 2805 2804 2804 2804 2807 2808 2808 2810 2812 2814 2817 2819 2822 2824 2826 2829 2832 2834 2837 2839 2841 2843 2846 2848 2849 2851 2852 2853 2855 2856 2857 2858 2859 2860 2861 2862 2863 2864 2865 2867 2868 2870 2873 2875 2878 2881 2884 2888 2891 2894 2897 2900
2788 2788 2788 2788 2789 2789 2789 2790 2790 2791 2792 2792 2793 2795 2797 2798 2798 2798 2797 2796 2796 2796 2796 2796 2796 2796 2796 2797 2798 2799 2800 2800 2801 2802 2803 2801 2800 2801 2803 2805 2806 2808 2809 2812 2814 2816 2818 2821 2823 2826 2828 2831 2833 2836 2838 2840 2842 2844 2846 2847 2849 2850 2851 2852 2853 2854 2855 2856 2857 2858 2859 2860 2861 2863 2864 2866 2868 2871 2874 2877 2880 2883 2887 2890 2893 2895
2785 2784 2784 2785 2785 2786 2786 2787 2787 2788 2788 2789 2789 2790 2792 2793 2793 2793 2792 2792 2792 2792 2793 2793 2792 2791 2790 2792 2794 2796 2797 2798 2799 2799 2799 2798 2797 2798 2801 2803 2804 2805 2806 2808 2811 2813 2816 2818 2820 2823 2825 2828 2830 2832 2835 2837 2839 2841 2843 2844 2845 2846 2847 2848 2849 2850 2851 2852 2853 2854 2855 2856 2857 2858 2860 2862 2864 2867 2870 2873 2876 2879 2882 2886 2888 2891
2781 2781 2781 2781 2782 2782 2783 2783 2784 2785 2785 2786 2786 2787 2788 2788 2788 2788 2787 2788 2789 2789 2790 2789 2788 2787 2788 2788 2789 2790 2792 2793 2794 2795 2796 2795 2795 2796 2798 2800 2801 2801 2803 2806 2809 2811 2813 2814 2817 2819 2822 2824 2827 2829 2832 2834 2836 2838 2839 2840 2842 2843 2843 2844 2845 2846 2847 2848 2849 2850 2851 2852 2853 2855 2857 2859 2861 2863 2866 2869 2871 2874 2878 2881 2884 2886
2778 2778 2778 2778 2778 2779 2779 2780 2781 2781 2782 2783 2783 2784 2784 2785 2784 2783 2783 2784 2786 2787 2787 2786 2785 2785 2786 2787 2787 2787 2788 2789 2790 2790 2792 2793 2793 2794 2796 2797 2798 2799 2802 2804 2807 2808 2809 2811 2814 2816 2819 2821 2823 2826 2828 2831 2833 2834 2836 2837 2838 2839 2840 2840 2841 2842 2843 2844 2845 2847 2848 2849 2850 2851 2853 2855 2858 2860 2862 2865 2867 2870 2873 2876 2878 2881
2775 2775 2774 2774 2775 2775 2776 2777 2778 2778 2779 2779 2780 2781 2782 2782 2781 2780 2779 2781 2783 2784 2783 2783 2783 2783 2783 2783 2783 2785 2786 2787 2787 2788 2789 2791 2791 2791 2792 2794 2796 2798 2800 2802 2803 2805 2807 2808 2811 2813 2816 2818 2821 2823 2826 2828 2829 2831 2833 2833 2834 2835 2836 2837 2837 2838 2839 2840 2842 2843 2844 2845 2846 2848 2850 2852 2854 2856 2858 2861 2863 2865 2868 2870 2873 2876
2772 2772 2772 2771 2772 2772 2773 2773 2774 2775 2775 2776 2777 2778 2779 2779 2778 2777 2776 2779 2780 2780 2779 2779 2780 2780 2780 2780 2781 2782 2783 2784 2784 2786 2787 2788 2788 2788 2790 2792 2794 2797 2798 2800 2802 2803 2805 2806 2808 2811 2813 2815 2818 2820 2823 2824 2826 2828 2829 2830 2831 2831 2832 2833 2833 2834 2836 2837 2838 2839 2840 2842 2843 2845 2847 2848 2851 2853 2855 2857 2859 2861 2863 2865 2868 2871
2768 2768 2768 2768 2769 2769 2770 2770 2771 2771 2772 2773 2773 2774 2775 2775 2774 2774 2774 2776 2777 2777 2776 2776 2777 2777 2778 2778 2779 2779 2779 2780 2782 2784 2785 2785 2785 2786 2789 2791 2793 2795 2797 2799 2800 2801 2802 2803 2805 2808 2810 2813 2815 2818 2819 2822 2823 2825 2826 2827 2827 2828 2828 2829 2830 2831 2832 2833 2834 2836 2837 2838 2840 2841 2843 2845 2847 2849 2851 2853 2854 2856 2858 2861 2863 2866
2764 2765 2765 2765 2766 2767 2767 2767 2767 2768 2768 2769 2770 2770 2771 2771 2771 2771 2772 2773 2773 2773 2773 2774 2774 2775 2776 2777 2776 2776 2775 2777 2780 2782 2782 2782 2783 2784 2788 2789 2791 2793 2795 2797 2798 2798 2799 2800 2803 2805 2808 2810 2813 2815 2817 2818 2820 2822 2823 2823 2824 2825 2825 2826 2827 2828 2828 2830 2831 2833 2834 2835 2837 2838 2840 2842 2844 2846 2848 2849 2851 2852 2854 2856 2859 2862
2761 2762 2762 2762 2763 2763 2764 2764 2764 2764 2765 2765 2766 2767 2768 2768 2768 2768 2769 2770 2770 2771 2771 2771 2771 2772 2773 2773 2773 2772 2773 2776 2778 2779 2779 2780 2781 2783 2786 2787 2789 2791 2793 2794 2795 2795 2796 2798 2801 2803 2805 2808 2810 2812 2814 2816 2818 2819 2820 2820 2821 2821 2822 2823 2823 2824 2825 2826 2828 2829 2831 2832 2834 2835 2837 2839 2841 2843 2844 2846 2847 2849 2851 2853 2855 2858
2758 2758 2758 2759 2760 2760 2760 2761 2761 2761 2762 2762 2763 2763 2764 2765 2765 2766 2766 2767 2767 2768 2768 2768 2769 2769 2770 2770 2770 2770 2772 2774 2776 2776 2777 2778 2780 2782 2784 2786 2787 2789 2790 2791 2792 2793 2794 2796 2798 2800 2803 2805 2807 2809 2811 2813 2815 2816 2817 2818 2818 2818 2818 2819 2820 2821 2822 2823 2825 2826 2828 2829 2831 2833 2834 2836 2838 2840 2841 2843 2844 2846 2848 2850 2852 2854
2755 2755 2756 2756 2756 2757 2757 2758 2758 2758 2759 2759 2760 2761 2762 2762 2763 2763 2763 2764 2764 2765 2765 2766 2766 2767 2768 2768 2768 2768 2770 2772 2773 2773 2774 2776 2778 2780 2782 2784 2785 2787 2788 2789 2790 2791 2793 2794 2795 2798 2800 2802 2805 2807 2809 2810 2812 2813 2814 2814 2815 2815 2816 2817 2818 2818 2819 2820 2822 2823 2825 2826 2828 2830 2832 2833 2835 2837 2838 2840 2842 2843 2845 2847 2848 2851
2753 2753 2753 2753 2753 2754 2754 2755 2755 2755 2756 2756 2757 2758 2759 2759 2760 2760 2761 2761 2762 2762 2763 2763 2764 2764 2765 2766 2766 2766 2767 2769 2771 2772 2773 2774 2776 2778 2780 2782 2783 2784 2786 2786 2787 2789 2790 2792 2793 2795 2797 2800 2803 2805 2806 2808 2809 2810 2811 2812 2812 2812 2813 2814 2815 2816 2817 2818 2819 2821 2822 2824 2825 2827 2829 2831 2832 2834 2835 2837 2839 2840 2842 2844 2846 2848
2749 2749 2750 2750 2751 2751 2751 2752 2752 2753 2753 2754 2754 2755 2756 2757 2757 2758 2758 2759 2759 2760 2760 2761 2762 2762 2763 2763 2764 2764 2765 2767 2769 2770 2771 2772 2774 2776 2778 2779 2781 2782 2783 2784 2785 2786 2788 2789 2790 2793 2795 2798 2800 2802 2803 2805 2807 2808 2808 2809 2809 2810 2811 2811 2812 2813 2814 2815 2817 2818 2819 2821 2823 2824 2826 2828 2829 2831 2832 2834 2836 2837 2838 2841 2843 2845
2746 2746 2747 2748 2748 2748 2748 2749 2749 2750 2751 2752 2752 2753 2754 2755 2755 2756 2757 2757 2758 2758 2759 2759 2760 2761 2761 2762 2762 2763 2764 2765 2767 2768 2769 2770 2772 2774 2776 2777 2778 2780 2781 2782 2783 2784 2785 2787 2789 2791 2793 2796 2798 2799 2801 2803 2804 2805 2806 2806 2807 2808 2808 2809 2810 2811 2812 2813 2814 2815 2817 2818 2820 2821 2823 2824 2826 2828 2829 2831 2833 2835 2837 2838 2840 2843
2744 2744 2744 2745 2746 2746 2747 2747 2748 2748 2749 2750 2751 2751 2752 2753 2753 2754 2755 2755 2756 2757 2757 2758 2758 2759 2759 2760 2761 2761 2762 2764 2765 2767 2768 2769 2771 2773 2774 2775 2777 2778 2778 2779 2780 2781 2783 2784 2787 2789 2792 2793 2796 2798 2799 2800 2802 2803 2803 2804 2805 2805 2806 2807 2808 2809 2809 2810 2811 2813 2814 2816 2817 2818 2820 2822 2824 2826 2828 2829 2831 2833 2835 2837 2839 2841
2742 2742 2743 2744 2744 2745 2745 2745 2746 2746 2747 2748 2748 2749 2750 2751 2751 2752 2753 2753 2754 2755 2755 2756 2756 2757 2758 2758 2759 2760 2761 2763 2764 2765 2766 2768 2769 2771 2772 2773 2774 2775 2776 2777 2778 2779 2780 2782 2785 2787 2789 2792 2794 2795 2797 2798 2799 2800 2801 2802 2803 2803 2804 2805 2806 2807 2808 2808 2809 2811 2812 2813 2815 2816 2818 2820 2823 2824 2826 2828 2830 2832 2833 2835 2837 2839
2741 2741 2742 2743 2743 2743 2743 2744 2744 2745 2745 2746 2747 2748 2748 2749 2750 2750 2751 2752 2753 2753 2754 2754 2755 2756 2757 2758 2758 2759 2760 2762 2763 2764 2765 2766 2768 2769 2770 2771 2772 2773 2774 2775 2776 2777 2778 2781 2783 2786 2788 2790 2792 2793 2794 2796 2797 2798 2799 2800 2801 2802 2803 2803 2804 2805 2806 2807 2808 2809 2810 2811 2813 2814 2816 2818 2821 2823 2825 2827 2828 2830 2832 2833 2835 2837
2739 2740 2740 2741 2741 2742 2742 2742 2743 2743 2744 2745 2746 2746 2747 2748 2748 2749 2749 2750 2751 2751 2752 2753 2754 2755 2756 2757 2757 2758 2759 2760 2761 2763 2764 2765 2766 2767 2768 2769 2770 2771 2772 2773 2774 2775 2777 2779 2782 2784 2786 2788 2789 2791 2793 2794 2796 2797 2798 2798 2799 2800 2801 2802 2803 2803 2804 2805 2806 2807 2808 2810 2811 2813 2814 2816 2818 2821 2823 2825 2827 2828 2830 2832 2833 2835
2739 2739 2739 2739 2740 2740 2741 2741 2742 2743 2743 2744 2745 2745 2745 2746 2747 2747 2748 2748 2748 2749 2750 2751 2752 2753 2754 2755 2756 2757 2758 2759 2760 2761 2762 2763 2764 2765 2766 2767 2768 2768 2770 2771 2772 2773 2776 2778 2781 2783 2785 2786 2788 2789 2791 2793 2794 2795 2796 2797 2798 2799 2800 2801 2802 2802 2803 2804 2805 2806 2808 2808 2810 2812 2813 2814 2816 2818 2821 2823 2825 2826 2828 2829 2831 2833
2738 2738 2738 2739 2739 2740 2740 2741 2741 2742 2742 2743 2743 2743 2744 2744 2744 2745 2745 2746 2747 2747 2748 2749 2750 2752 2753 2753 2754 2755 2756 2757 2758 2759 2760 2761 2762 2763 2764 2765 2765 2766 2768 2769 2771 2773 2775 2777 2779 2781 2783 2785 2787 2788 2790 2792 2793 2794 2795 2796 2797 2798 2799 2800 2801 2801 2802 2803 2805 2806 2807 2808 2809 2811 2812 2814 2815 2818 2820 2822 2823 2825 2826 2827 2829 2831
2738 2738 2738 2738 2739 2739 2739 2740 2740 2740 2741 2741 2741 2742 2742 2742 2743 2743 2744 2744 2745 2746 2747 2748 2749 2750 2751 2752 2753 2754 2755 2755 2756 2757 2758 2759 2760 2761 2762 2763 2764 2765 2766 2768 2770 2772 2774 2776 2778 2780 2782 2784 2786 2787 2789 2791 2792 2793 2795 2796 2797 2797 2798 2799 2800 2801 2802 2803 2804 2806 2807 2808 2809 2810 2812 2813 2815 2817 2818 2820 2822 2823 2825 2827 2828 2830
2738 2738 2738 2738 2738 2738 2738 2738 2739 2739 2739 2739 2739 2740 2740 2741 2741 2742 2743 2743 2744 2745 2746 2747 2748 2749 2750 2751 2752 2753 2753 2754 2755 2756 2757 2758 2758 2759 2760 2761 2763 2764 2765 2767 2769 2771 2773 2775 2777 2779 2781 2783 2785 2787 2789 2790 2792 2793 2794 2795 2796 2797 2798 2799 2800 2801 2802 2803 2804 2806 2807 2808 2809 2810 2811 2813 2814 2816 2817 2819 2820 2822 2824 2826 2828 2829
2736 2737 2737 2737 2737 2737 2737 2737 2737 2737 2738 2738 2738 2739 2739 2740 2740 2741 2742 2743 2743 2744 2745 2747 2748 2748 2749 2750 2751 2751 2752 2753 2753 2754 2755 2756 2757 2758 2759 2761 2762 2763 2764 2766 2768 2770 2772 2774 2776 2778 2781 2783 2785 2787 2789 2790 2792 2793 2794 2795 2796 2797 2798 2799 2800 2801 2802 2803 2804 2806 2807 2808 2809 2810 2811 2812 2813 2815 2816 2818 2819 2821 2823 2824 2826 2827
2735 2735 2735 2735 2735 2735 2735 2735 2736 2736 2736 2737 2737 2738 2738 2739 2740 2740 2741 2742 2743 2743 2744 2745 2746 2747 2748 2748 2749 2750 2750 2751 2752 2753 2753 2755 2756 2757 2758 2760 2761 2762 2764 2766 2768 2770 2772 2774 2776 2779 2781 2783 2785 2787 2789 2791 2792 2793 2794 2795 2796 2797 2798 2799 2800 2801 2803 2803 2805 2806 2808 2809 2810 2811 2812 2812 2813 2814 2815 2817 2818 2820 2822 2823 2824 2826
2734 2733 2733 2733 2734 2734 2734 2734 2734 2735 2735 2736 2736 2737 2738 2738 2739 2739 2740 2741 2742 2743 2743 2744 2745 2746 2747 2747 2748 2748 2749 2750 2751 2752 2753 2754 2755 2757 2758 2759 2760 2761 2763 2765 2768 2770 2772 2774 2777 2779 2782 2784 2786 2788 2789 2791 2792 2793 2794 2796 2797 2798 2799 2800 2801 2802 2803 2804 2806 2807 2808 2810 2811 2812 2813 2813 2813 2814 2815 2817 2818 2820 2822 2823 2825 2826
2732 2732 2732 2732 2732 2733 2733 2733 2733 2734 2734 2735 2735 2736 2737 2738 2738 2739 2739 2740 2741 2742 2742 2743 2744 2744 2745 2746 2747 2748 2749 2749 2751 2752 2753 2754 2755 2757 2758 2759 2760 2761 2763 2765 2768 2770 2773 2775 2778 2781 2783 2785 2787 2789 2790 2792 2793 2794 2795 2797 2798 2799 2800 2801 2802 2803 2805 2806 2807 2808 2809 2811 2813 2814 2814 2814 2814 2815 2816 2817 2819 2821 2823 2825 2826 2827
2731 2731 2731 2731 2732 2732 2732 2732 2733 2733 2734 2734 2735 2736 2736 2737 2738 2738 2739 2740 2741 2741 2742 2743 2743 2744 2745 2746 2747 2748 2749 2750 2751 2752 2753 2754 2756 2757 2758 2759 2760 2762 2763 2766 2768 2771 2773 2776 2779 2782 2784 2787 2789 2790 2792 2793 2794 2796 2797 2798 2799 2801 2802 2803 2804 2805 2806 2807 2808 2810 2811 2812 2814 2816 2817 2817 2817 2817 2817 2818 2820 2821 2823 2825 2827 2828
2730 2730 2731 2731 2731 2732 2732 2733 2733 2733 2734 2734 2735 2736 2736 2737 2738 2739 2739 2740 2741 2741 2742 2742 2743 2744 2745 2746 2747 2748 2749 2750 2751 2753 2754 2755 2756 2757 2758 2759 2761 2763 2765 2767 2769 2772 2774 2777 2780 2783 2785 2788 2790 2791 2793 2794 2795 2797 2798 2799 2801 2802 2803 2804 2805 2807 2808 2809 2810 2811 2813 2814 2815 2817 2818 2819 2819 2819 2819 2820 2821 2823 2824 2826 2828 2829